Weather History for Quillayute, WA

Change the Weather History Date:

Monday, February 18, 2013

  Actual Average Record
Temperature  
Mean Temperature 42 °F 42 °F  
Max Temperature 46 °F 49 °F 60 °F (2008)
Min Temperature 37 °F 35 °F 20 °F (1986)
Degree Days  
Heating Degree Days 23 23  
Month to date heating degree days 369 414  
Since 1 July heating degree days 3477 3619  
Cooling Degree Days 0 0  
Month to date cooling degree days 0 0  
Year to date cooling degree days 0 0  
Moisture  
Dew Point 37 °F    
Average Humidity 81    
Maximum Humidity 86    
Minimum Humidity 76    
Precipitation  
Precipitation 0.62 in 0.36 in 3.96 in (1968)
Month to date precipitation 3.66 6.76  
Year to date precipitation 14.00 21.37  
Sea Level Pressure  
Sea Level Pressure 29.85 in    
Wind  
Wind Speed 5 mph (ESE)    
Max Wind Speed 12 mph    
Max Gust Speed 20 mph    
Visibility 3 miles    
Events Rain    
T = Trace of Precipitation, MM = Missing Value Source: NWS Daily Summary

Daily Weather History Graph

Daily Weather History Graph

Search for Another Location

Airport:

Trip Planner

Search our weather history database for the weather conditions in past years. The results will help you decide how hot, cold, wet, or windy it might be!

Date:

Astronomy

Feb. 18, 2013 Rise Set
Actual Time 7:18 AM PST 5:46 PM PST
Civil Twilight 6:47 AM PST 6:17 PM PST
Nautical Twilight 6:10 AM PST 6:54 PM PST
Astronomical Twilight 5:35 AM PST 7:29 PM PST
Moon 11:23 AM PST 2:16 AM PST
Length of Visible Light 11h 30m
Length of Day
10h 27m
First Quarter, 59% of the Moon is Illuminated
Feb 18
First Quarter
Feb 25
Full
Mar 4
Last Quarter
Mar 11
New
Mar 19
First Quarter

Hourly Weather History & Observations

Time (PST) Temp. Windchill Dew Point Humidity Pressure Visibility Wind Dir Wind Speed Gust Speed Precip Events Conditions
12:53 AM 37.9 °F 34.4 °F 34.0 °F 86% 30.09 in 4.0 mi East 4.6 mph - N/A   Overcast
1:53 AM 37.9 °F 34.4 °F 34.0 °F 86% 30.07 in 4.0 mi ENE 4.6 mph - N/A   Overcast
2:53 AM 37.0 °F - 34.0 °F 89% 30.06 in 5.0 mi Calm Calm - N/A   Overcast
3:45 AM 37.4 °F 34.9 °F 33.8 °F 87% 30.03 in 5.0 mi East 3.5 mph - N/A   Haze
3:53 AM 37.9 °F - 34.0 °F 86% 30.04 in 5.0 mi Calm Calm - N/A   Overcast
4:38 AM 37.4 °F 34.9 °F 33.8 °F 87% 30.01 in 5.0 mi East 3.5 mph - 0.00 in   Overcast
4:49 AM 37.4 °F 34.9 °F 33.8 °F 87% 30.01 in 5.0 mi East 3.5 mph - 0.00 in   Overcast
4:53 AM 37.0 °F 33.3 °F 33.1 °F 86% 30.01 in 5.0 mi East 4.6 mph - 0.00 in   Overcast
5:53 AM 37.9 °F 33.5 °F 33.1 °F 83% 30.00 in 5.0 mi East 5.8 mph - N/A   Haze
6:53 AM 37.9 °F 34.4 °F 33.1 °F 83% 29.98 in 5.0 mi East 4.6 mph - 0.00 in Rain Light Rain
7:50 AM 37.4 °F 33.8 °F 33.8 °F 87% 29.96 in 4.0 mi East 4.6 mph - 0.00 in   Overcast
7:53 AM 37.9 °F 35.5 °F 34.0 °F 86% 29.96 in 3.0 mi East 3.5 mph - 0.00 in   Overcast
8:33 AM 39.2 °F 37.0 °F 33.8 °F 81% 29.95 in 4.0 mi East 3.5 mph - N/A   Haze
8:53 AM 39.0 °F 36.8 °F 35.1 °F 86% 29.95 in 4.0 mi East 3.5 mph - N/A   Overcast
9:15 AM 39.2 °F 37.0 °F 35.6 °F 87% 29.94 in 4.0 mi East 3.5 mph - N/A   Haze
9:40 AM 41.0 °F 38.0 °F 35.6 °F 81% 29.93 in 4.0 mi East 4.6 mph - N/A   Haze
9:53 AM 42.1 °F 38.4 °F 36.0 °F 79% 29.93 in 5.0 mi East 5.8 mph - N/A   Haze
10:44 AM 42.8 °F 38.6 °F 35.6 °F 76% 29.91 in 2.5 mi SSE 6.9 mph - 0.00 in Rain Light Rain
10:51 AM 42.8 °F 38.6 °F 35.6 °F 76% 29.91 in 3.0 mi SSE 6.9 mph - 0.00 in Rain Light Rain
10:53 AM 43.0 °F 40.3 °F 36.0 °F 76% 29.92 in 3.0 mi SE 4.6 mph - 0.00 in Rain Light Rain
11:12 AM 42.8 °F 41.1 °F 37.4 °F 81% 29.91 in 3.0 mi Variable 3.5 mph - 0.01 in Rain Light Rain
11:27 AM 42.8 °F 40.1 °F 37.4 °F 81% 29.90 in 1.8 mi Variable 4.6 mph - 0.02 in Rain Light Rain
11:43 AM 42.8 °F 39.3 °F 37.4 °F 81% 29.90 in 2.5 mi SE 5.8 mph - 0.03 in Rain Light Rain
11:53 AM 43.0 °F 39.5 °F 37.9 °F 82% 29.90 in 2.0 mi SE 5.8 mph - 0.03 in Rain Light Rain
12:22 PM 44.6 °F 41.4 °F 39.2 °F 81% 29.88 in 3.0 mi Variable 5.8 mph - 0.01 in Rain Light Rain
12:29 PM 44.6 °F 43.1 °F 39.2 °F 81% 29.88 in 2.0 mi Variable 3.5 mph - 0.01 in Rain Light Rain
12:48 PM 44.6 °F 40.7 °F 39.2 °F 81% 29.87 in 3.0 mi SE 6.9 mph - 0.02 in Rain Light Rain
12:53 PM 45.0 °F 40.6 °F 39.9 °F 82% 29.87 in 3.0 mi SSE 8.1 mph - 0.02 in Rain Light Rain
1:02 PM 44.6 °F 40.7 °F 39.2 °F 81% 29.86 in 3.0 mi SSE 6.9 mph - 0.00 in Rain Light Rain
1:53 PM 44.1 °F 40.8 °F 37.0 °F 76% 29.84 in 3.0 mi Variable 5.8 mph 17.3 mph 0.00 in Rain Light Rain
2:10 PM 44.6 °F 41.4 °F 37.4 °F 76% 29.83 in 2.0 mi SE 5.8 mph - 0.00 in Rain Light Rain
2:17 PM 44.6 °F 40.2 °F 37.4 °F 76% 29.83 in 3.0 mi SE 8.1 mph - 0.00 in Rain Light Rain
2:24 PM 44.6 °F 39.2 °F 37.4 °F 76% 29.83 in 3.0 mi SE 10.4 mph - 0.00 in Rain Light Rain
2:31 PM 42.8 °F 38.0 °F 37.4 °F 81% 29.83 in 1.8 mi SE 8.1 mph - 0.01 in Rain Light Rain
2:48 PM 42.8 °F 38.6 °F 37.4 °F 81% 29.82 in 3.0 mi SSE 6.9 mph 18.4 mph 0.02 in Rain Light Rain
2:53 PM 44.6 °F 39.2 °F 37.4 °F 76% 29.82 in 4.0 mi SE 10.4 mph 19.6 mph N/A Rain Light Rain
3:00 PM 42.8 °F 39.3 °F 37.4 °F 81% 29.81 in 1.8 mi SSE 5.8 mph 19.6 mph 0.00 in Rain Light Rain
3:13 PM 44.6 °F 39.2 °F 39.2 °F 81% 29.80 in 3.0 mi SE 10.4 mph - 0.01 in Rain Light Rain
3:45 PM 44.6 °F 39.2 °F 39.2 °F 81% 29.79 in 4.0 mi SSE 10.4 mph 16.1 mph 0.01 in   Haze
3:53 PM 44.1 °F 40.8 °F 37.9 °F 79% 29.79 in 2.5 mi Variable 5.8 mph 16.1 mph 0.01 in Rain Light Rain
4:05 PM 42.8 °F 38.0 °F 39.2 °F 87% 29.78 in 1.8 mi SSE 8.1 mph - 0.01 in Rain Light Rain
4:23 PM 42.8 °F 39.3 °F 37.4 °F 81% 29.77 in 2.5 mi SE 5.8 mph - 0.03 in Rain Light Rain
4:45 PM 42.8 °F 38.6 °F 37.4 °F 81% 29.77 in 1.8 mi SE 6.9 mph - 0.04 in Rain Light Rain
4:53 PM 43.0 °F 38.2 °F 37.9 °F 82% 29.76 in 1.8 mi SE 8.1 mph - 0.04 in Rain Light Rain
5:01 PM 42.8 °F 38.6 °F 37.4 °F 81% 29.76 in 2.5 mi SE 6.9 mph - 0.01 in Rain Light Rain
5:08 PM 42.8 °F 38.6 °F 37.4 °F 81% 29.75 in 3.0 mi SE 6.9 mph - N/A Rain Light Rain
5:31 PM 42.8 °F 37.0 °F 37.4 °F 81% 29.75 in 2.5 mi SE 10.4 mph - 0.02 in Rain Light Rain
5:45 PM 42.8 °F 37.5 °F 37.4 °F 81% 29.74 in 3.0 mi SE 9.2 mph 17.3 mph 0.02 in Rain Light Rain
5:53 PM 42.1 °F 36.1 °F 37.9 °F 85% 29.74 in 4.0 mi SE 10.4 mph 19.6 mph 0.03 in Rain Light Rain
6:05 PM 42.8 °F 38.0 °F 37.4 °F 81% 29.74 in 2.5 mi SE 8.1 mph 18.4 mph 0.02 in Rain Light Rain
6:24 PM 42.8 °F 38.6 °F 37.4 °F 81% 29.73 in 3.0 mi SE 6.9 mph - 0.05 in Rain Light Rain
6:33 PM 42.8 °F 38.6 °F 37.4 °F 81% 29.73 in 2.5 mi SE 6.9 mph - 0.06 in Rain Light Rain
6:53 PM 42.1 °F 37.7 °F 37.0 °F 82% 29.73 in 2.0 mi SE 6.9 mph - 0.12 in Rain Rain
7:36 PM 41.0 °F 37.1 °F 37.4 °F 87% 29.72 in 2.0 mi Variable 5.8 mph - 0.12 in Rain Rain
7:43 PM 41.0 °F 39.0 °F 37.4 °F 87% 29.72 in 2.0 mi Variable 3.5 mph - 0.14 in Rain Rain
7:53 PM 41.0 °F - 37.0 °F 86% 29.73 in 2.0 mi Calm Calm - 0.18 in Rain Rain
8:01 PM 41.0 °F - 35.6 °F 81% 29.72 in 1.8 mi Calm Calm - 0.03 in Rain Rain
8:53 PM 39.9 °F 37.8 °F 36.0 °F 86% 29.72 in 2.0 mi Variable 3.5 mph - 0.16 in Rain Light Rain
9:08 PM 41.0 °F 39.0 °F 35.6 °F 81% 29.71 in 4.0 mi NNE 3.5 mph - 0.01 in Rain Light Rain
9:53 PM 42.1 °F 37.7 °F 36.0 °F 79% 29.72 in 5.0 mi SE 6.9 mph - 0.01 in Rain Light Rain
10:53 PM 41.0 °F 38.0 °F 36.0 °F 82% 29.72 in 6.0 mi SE 4.6 mph - 0.00 in   Haze
11:53 PM 41.0 °F 39.0 °F 36.0 °F 82% 29.72 in 6.0 mi Variable 3.5 mph - N/A   Haze